Погода в Армавире

Погода в Армавире : погода сейчас, прогноз погоды и архив. Всё, что Вы хотите узнать о погоде в Армавире!

Поиск расширенной информации на нашем сайте:

Полезная информация:

Другие новости

Новости СМИ2

Главная страница сайта

Новости сайта

03.07.2017

Напоминаем, что на нашем специализированном сайте Метеоцентр.Азия вы можете получить высокодетализированные автоматические прогнозы погоды по пунктам России, СНГ и мира в авиационном формате (включающие направление и скорость ветра, видимость, явления погоды, количество и форму облачности, нижнюю и верхнюю границу облачности).

Рекомендуем:

Погода в Армавире - сегодня

Время (UTC), дата Ветер
(°,м/с) 
Видим.   Явления Облачность Т
(°С)
Тd
(°С)
f(%) Тe
(°С)
Pmin
(гПа)
dP
(гПа)
Po
(мм)
O2
(г/м3)
Тmin Tmax R s Состояние
почвы
12 15.07.19 070 (В) 10 км  {ливн. осадки}  10/8 600 м средняя 
[Cu Sc|Ac As]
+26.9 +9.6 34 +28  1003.3  -0.6  739  269           
15 15.07.19 240 (ЮЗ) 10 км  слаб. ливневой дождь  10/10 600 м кучево-дожд. 
[Cb cap]
+19.7 +17.1 85 +33  1005.2  1.5  740  274    +27.2     
18 15.07.19 тихо ()   10 км  {ливн. осадки}  8/4 600 м средняя 
[Sc|Ac trans]
+17.4 +16.3 93 +29  1005.7  0.4  740  277           
21 15.07.19 300 (СЗ) 1000 м  дымка  3/0 верхняя 
[Ci fib]
+15.9 +15 94 +26  1005.8  740  279           
00 16.07.19 120 (ЮВ) 4000 м  в посл. час туман  9/0 средняя 
[Ac trans]
+15.7 +15 96 +26  1005.9  740  279           
03 16.07.19 130 (ЮВ) 4000 м  в посл. час ливневой дождь  10/10 600 м кучево-дожд. 
[Cb cap]
+16.8 +16.1 96 +29  1006.4  0.5  741  278  +14.7       
06 16.07.19 130 (ЮВ) 10 км  {ливн. осадки}  10/10 600 м 
[Sc]
+19.8 +17.3 86 +34  1006.7  0.6  741  275           
09 16.07.19 080 (В) 10 км    9/8 600 м верхняя 
[Cu hum|Ci fib]
+25.1 +15.1 54 +34  1005.8  -0.6  741  270           
12 16.07.19 270 (З) 5-10{10}  10 км  {ливн. осадки}  9/9 600 м кучево-дожд. 
[Cb cap]
+22.2 +15.8 67 +33  1006.7  0.8  741  273           
15 16.07.19 260 (З) 10 км  {ливн. осадки}  4/4 600 м кучево-дожд. 
[Cb cap]
+24.5 +14.6 54 +33  1007  0.4  742  271    +26.3  0.5     
18 16.07.19 270 (З) 2{10}  10 км  {ливн. осадки}  1/0 средняя 
[Ac trans]
+19.1 +14.4 74 +28  1009.4  2.1  743  277           
21 16.07.19 тихо ()   10 км    ясно 
+17.5 +14 80 +25  1010.1  0.5  744  279           
00 17.07.19 140 (ЮВ) 10 км    ясно 
+15.2 +13.3 88 +23  1009.9  -0.3  743  281           
03 17.07.19 130 (ЮВ) 10 км    ясно 
+15.5 +13.2 86 +22  1010.3  0.4  744  281  +14.3        влажная 
06 17.07.19 190 (Ю) 10 км    1/1 600 м 
[Cu hum]
+23.1 +14.3 58 +31  1009.3  -0.5  743  273           
09 17.07.19 240 (ЮЗ) 10 км    6/5 600 м верхняя 
[Cu hum|Ci fib]
+26.6 +14.1 46 +34  1007.7  -1.3  742  270           
12 17.07.19 010 (С) 10 км    4/3 300 м верхняя 
[Cu hum|Ci fib]
+29.3 +11 32 +32  1006.7  -0.9  742  268           
15 17.07.19 310 (СЗ) 10 км    3/3 300 м 
[Cu Sc]
+28.1 +11.3 35 +31  1006.2  -0.6  741  269    +29.8       
18 17.07.19 050 (СВ) 10 км    8/5 300 м верхняя 
[Sc|Ci fib]
+22.9 +12.9 53 +28  1006.5  741  273           
21 17.07.19 тихо ()   10 км    9/9 600 м 
[Sc]
+19.9 +14.4 71 +28  1006.3  -0.4  741  275           
00 18.07.19 270 (З) 10 км    6/0 верхняя 
[Ci fib]
+17.1 +14.5 85 +27  1006.1  -0.4  741  278           
03 18.07.19 290 (З) 10 км    8/6 600 м средняя, верхняя 
[Sc|Ac trans|Ci]
+18 +15.2 84 +28  1006.1  0.1  741  277  +16.5        сухая 
06 18.07.19 230 (ЮЗ) 10 км  слаб. ливневой дождь  10/10 600 м кучево-дожд. 
[Cb cap]
+21.8 +15.8 69 +32  1006.9  742  273           
09 18.07.19 150 (ЮВ) 10 км  гроза, ливневой дождь  10/10 600 м кучево-дожд. 
[Cb cap]
+20.4 +18.5 89 +36  1008.5  1.4  743  274           
12 18.07.19 040 (СВ) 10 км  {гроза, ливн. осадки}  10/3 600 м средняя, верхняя 
[Sc|Ac trans|Cs]
+24.3 +18 68 +39  1007.9  -0.4  742  271           
Время (UTC), дата Ветер
(°,м/с) 
Видим.   Явления Облачность Т
(°С)
Тd
(°С)
f(%) Тe
(°С)
Pmin
(гПа)
dP
(гПа)
Po
(мм)
O2
(г/м3)
Тmin Tmax R s Состояние
почвы

Для получения пояснительной информации подведите курсор к названию столбца.

ПОГОДА в Армавире - архив

Всё, что Вы хотите узнать о погоде в Армавире - удобно и подробно!

Выберите нужную дату (начиная с 1 января 2018* года) и нажмите кнопку "Найти".
Будут отображены архивные сводки погоды по пункту Армавир, начиная с указанной даты.


Отображать данные в формате CSV (для использования в таблицах Excel)


Внимание! Наш архив погоды предназначен исключительно для личного некоммерческого использования в познавательных целях. Если Вам необходимы официальные справки о состоянии погоды (для производственных, юридических, коммерческих и т.п. целей), обращайтесь в органы Росгидромета.

*Примечание: данная дата относится к архиву по метеостанциям СССР (Россия, СНГ, Балтия).
Архив по метеостанциям Зарубежной Европы и Азии (кроме Китая) хранится 10 дней, по другим регионам земного шара (Китай, Африка, Америка, Австралия, Океания) - 1 день.

Армавир - район местоположения метеостанции


Название, широта, долгота, высота метеостанции:
Армавир 45°ш. 41.1°д. 159 м над ур. моря [Российская Федерация]

Дополнительная информация

В oтличие oт бoльшинства пoгoдных сайтoв мы публикуем пoдрoбную метеoинфoрмацию в детальнoм прoфессиoнальнoм фoрмате.

Характеристики температуры и влажнoсти вoздуха измеряются на высoте 2 м в тени вдали oт зданий и деревьев.
Скoрoсть ветра измеряется на высoте 10 м (на урoвне рoста челoвека скoрoсть ветра ниже в 1.5-2 раза). Если метеoстанция нахoдится в гoрoде или в лесу, тo скoрoсть ветра занижена на 2-4 м/с пo сравнению с oткрытым местoм. Скoрoсть ветра над акватoриями крупных рек и oзёр, а также на вершинах хoлмoв на 2-5 м/с выше, чем в oбычных услoвиях.
Атмoсфернoе давление в разных тoчках местнoсти мoжет значительнo oтличаться oт давления на метеoстанции, в зависимoсти oт услoвий рельефа (при пoдъёме на 10 м давление пoнижается примернo на 1 мм рт.ст.).